Temperature
18 18 18 18 18 18 18 18 18 18 18 19 19 19 19 19 19 18 18 18 18 18 18 18 17 17 18 18 18 18 18 18 18 18 18 18 18 18 18 18 18 18 18
18 18 18 18 18 18 18 18 18 18 19 19 19 19 19 19 19 18 18 18 18 18 18 18 18 17 17 18 18 18 18 17 17 18 17 18 18 17 17 17 17 17 17
18 18 18 18 18 18 18 18 18 19 19 19 19 19 19 19 19 19 18 18 18 18 18 18 18 17 17 17 17 17 17 17 17 17 17 17 17 17 17 17 17 17 17
18 18 18 18 18 18 18 18 18 18 19 19 19 19 19 19 19 19 18 18 18 18 18 18 18 18 18 18 17 17 17 17 17 17 17 17 17 17 17 17 17 17 17
18 18 18 18 18 18 18 18 18 18 18 18 19 19 19 19 19 19 19 18 18 18 18 18 18 18 18 18 18 17 17 17 17 17 17 17 17 17 17 17 17 17 17
18 18 18 18 18 18 18 18 18 18 18 18 18 19 19 19 19 19 19 19 18 18 18 18 18 18 18 18 18 18 17 17 17 17 17 17 17 17 17 17 16 16 16
17 17 17 18 18 18 18 18 18 18 18 18 18 18 19 19 19 19 19 19 19 18 18 18 18 18 18 18 18 18 18 17 17 17 17 17 17 17 17 16 16 16 16
17 17 17 17 17 17 17 17 17 17 17 17 17 18 18 18 19 19 18 18 18 18 18 18 18 18 18 18 18 18 18 18 17 17 17 17 17 17 17 16 16 16 16
16 17 17 17 17 17 17 17 17 17 17 17 17 17 17 18 18 18 18 18 18 18 18 18 18 18 18 18 17 17 17 17 17 17 17 17 17 17 17 17 17 17 16
16 16 16 17 17 17 17 17 17 17 17 17 17 17 17 17 18 18 18 18 18 18 18 18 18 18 18 18 17 17 17 17 17 17 17 17 17 17 17 17 17 16 16
16 16 16 16 16 16 17 16 16 17 16 17 17 17 17 17 17 17 17 18 18 18 18 18 18 18 18 18 17 17 17 17 17 17 17 17 17 17 17 17 17 16 16
15 15 16 16 16 16 16 16 16 16 16 16 16 16 16 17 17 17 17 17 17 17 17 17 18 18 18 17 17 17 17 17 17 17 17 17 17 16 16 16 16 16 16
15 15 15 15 16 16 16 16 16 16 16 16 16 16 16 16 16 17 16 17 17 17 17 17 17 17 17 17 17 17 17 17 17 16 16 16 16 16 16 16 16 16 16
14 15 15 15 15 15 15 16 16 16 16 16 16 16 16 16 16 16 16 16 16 16 16 17 16 16 16 16 16 16 16 16 16 16 16 16 16 16 16 16 16 15 15
14 14 14 15 15 15 15 15 15 15 15 15 15 15 15 15 15 15 15 16 16 16 16 16 16 16 16 16 16 16 16 16 16 16 16 16 16 16 16 15 15 15 15
14 14 14 14 14 14 15 15 15 15 15 15 15 15 15 15 15 15 15 15 15 15 15 15 15 15 15 15 15 15 15 15 15 15 15 15 15 15 15 15 15 15 15
13 13 13 14 14 14 14 14 14 14 15 15 15 15 15 15 15 15 15 15 15 14 14 15 15 15 14 15 15 15 15 15 15 15 15 15 15 15 15 15 15 14 14
13 13 13 13 13 13 13 14 14 14 14 14 14 14 14 14 14 14 14 14 14 14 14 14 14 14 14 14 14 14 14 14 14 14 14 14 14 14 14 14 14 14 14
12 13 13 13 13 13 13 13 13 14 14 14 14 14 14 14 14 14 14 14 14 14 14 14 14 14 14 14 14 14 14 14 14 14 14 14 14 14 14 14 14 14 14
12 12 12 13 13 13 13 13 13 13 13 14 14 14 14 14 14 14 14 14 14 14 14 13 14 13 13 13 13 13 14 14 13 13 13 13 13 13 13 13 13 13 13
11 11 12 12 12 13 13 13 13 13 13 13 13 13 13 13 14 14 14 14 13 13 13 13 13 13 13 13 13 13 13 13 13 13 13 13 13 13 13 13 13 13 13
11 11 11 12 12 12 12 12 12 12 13 13 13 13 13 13 13 13 13 13 13 13 13 13 13 13 13 13 13 13 13 13 13 13 13 12 12 12 12 12 12 12 12
10 11 11 11 11 12 12 12 12 12 12 12 12 12 12 12 13 13 13 13 13 13 13 13 13 13 13 13 13 13 13 13 13 12 12 12 12 12 12 12 12 12 12
10 10 10 10 11 11 11 12 12 11 11 11 12 12 12 12 12 13 13 13 13 13 13 13 13 13 13 13 13 13 13 13 12 12 12 12 11 11 11 11 11 11 11
10 10 10 10 10 11 11 11 11 11 11 11 11 12 12 12 12 12 13 13 13 13 13 13 13 13 13 13 13 13 13 13 12 12 12 12 11 11 10 10 10 10 11
10 10 10 10 10 10 10 11 11 11 11 11 11 11 12 12 12 12 12 12 12 12 12 12 13 13 12 12 12 13 13 12 12 11 11 11 11 11 10 10 10 10 10
Wind_Speed
4 4 4 7 9 11 10 6 8 8 7 7 7 6 6 8 8 12 12 13 11 8 7 7 7 7 7 6 7 7 7 7 7 7 8 8 8 8 7 7 6 6 6
4 3 4 3 5 6 8 8 6 5 3 3 3 2 3 5 7 13 14 13 12 10 7 8 8 7 7 7 7 7 7 7 7 7 7 7 7 7 7 6 5 4 4
6 4 4 3 3 6 7 6 6 5 4 4 4 3 2 3 4 10 15 13 13 12 10 9 8 8 8 7 7 7 7 7 7 7 7 7 6 6 5 5 4 3 3
7 4 4 3 3 4 3 3 3 2 3 3 3 4 4 4 4 6 12 14 15 13 13 12 10 9 8 8 8 8 8 8 8 7 7 7 7 6 5 5 4 3 3
8 5 4 3 4 2 2 3 3 2 3 3 4 4 4 5 5 5 6 11 15 16 15 15 13 11 10 9 8 8 9 9 8 8 7 7 7 6 6 5 4 4 3
7 5 3 4 4 3 2 2 2 2 1 2 4 3 4 4 4 5 5 5 12 15 17 16 14 13 12 11 10 9 9 9 9 8 8 8 7 7 6 6 5 4 4
6 5 5 5 5 5 5 4 3 3 2 2 2 2 2 4 5 5 4 3 5 10 17 17 16 14 13 14 12 11 10 9 9 9 9 8 8 7 6 6 5 5 4
6 5 5 5 6 5 6 6 4 3 3 2 2 1 2 2 3 4 4 4 4 5 8 14 15 16 16 15 15 15 12 11 9 9 9 8 8 8 7 6 5 5 4
6 5 5 6 6 6 6 7 7 6 4 3 3 3 3 4 2 3 3 4 4 3 4 5 11 15 17 17 17 18 16 13 11 10 9 8 8 7 7 6 5 5 4
5 6 6 6 7 6 7 8 8 6 6 5 3 3 3 3 3 2 2 3 3 4 4 4 3 7 12 15 17 20 20 16 13 11 10 9 8 7 7 6 5 5 4
4 5 5 6 7 7 7 7 7 7 7 6 5 4 4 2 2 2 2 2 1 1 1 1 2 2 6 11 15 18 21 18 16 13 11 10 9 8 7 7 6 5 4
2 3 3 4 5 6 7 8 8 9 8 8 6 5 4 3 3 3 3 2 2 2 1 1 0 1 4 8 13 19 20 19 17 14 12 11 10 10 9 8 6 5 5
2 2 2 3 4 4 5 6 7 8 8 8 8 6 5 5 3 3 3 3 3 2 0 0 1 1 2 5 10 18 18 18 17 15 13 12 11 10 9 9 7 6 6
3 2 2 2 2 3 3 4 4 6 6 7 8 7 5 5 4 4 4 4 3 2 1 1 1 1 2 4 8 11 11 15 15 14 13 12 11 11 10 9 8 7 6
4 3 2 2 1 1 2 2 2 2 3 5 5 5 5 4 4 4 4 4 5 4 3 2 1 0 1 3 6 6 6 13 14 14 13 12 12 11 10 9 8 7 5
7 7 6 5 4 3 2 2 1 1 2 2 3 5 5 4 4 4 4 4 4 4 3 2 2 2 1 2 5 3 4 8 12 12 12 12 11 10 10 9 8 7 7
9 8 7 6 6 6 5 4 2 1 1 2 3 4 4 4 4 4 4 4 4 4 4 2 2 2 3 2 1 3 4 6 8 10 10 10 10 9 9 8 7 7 6
9 9 8 8 8 7 6 5 3 3 2 2 2 3 3 3 4 4 4 4 4 4 4 3 1 2 2 2 2 2 2 4 6 9 10 9 9 8 7 5 5 5 5
10 10 9 9 9 9 8 7 6 5 4 2 2 2 3 4 3 3 3 4 3 3 3 3 2 2 1 2 1 1 1 2 5 7 8 7 7 6 5 4 3 3 2
10 10 10 10 9 10 10 9 7 5 4 4 3 3 3 3 3 3 4 4 4 4 4 4 3 2 2 1 2 2 2 2 3 5 7 8 9 9 8 7 6 4 3
11 10 10 10 9 9 10 10 8 6 5 5 5 5 5 5 4 3 4 4 4 4 4 3 3 2 2 2 2 2 3 3 4 4 5 6 8 9 9 9 9 7 6
9 9 9 9 10 10 13 14 10 6 5 5 5 4 5 6 6 7 7 6 5 4 4 3 3 3 3 3 2 3 4 4 3 3 6 6 7 7 9 9 10 10 9
8 8 9 8 9 11 16 15 14 6 5 6 5 5 5 6 6 5 7 9 8 6 4 3 4 4 4 3 3 4 4 4 4 4 6 6 6 7 9 11 12 12 12
7 7 7 8 8 12 17 16 13 6 6 7 7 6 6 6 6 5 6 8 8 8 6 5 6 5 4 3 3 4 6 6 6 4 4 4 4 5 6 10 14 15 15
5 6 6 7 8 10 16 16 13 5 5 7 7 8 7 6 8 8 6 7 7 6 10 13 12 11 11 9 6 5 5 6 5 3 2 4 4 4 4 4 10 15 16
4 4 5 6 7 8 14 17 14 6 6 5 6 7 10 8 8 7 5 6 7 5 5 6 6 6 7 8 9 5 4 6 5 3 2 3 4 4 3 2 3 7 11
Wind_Direction
213 226 222 192 192 195 194 210 220 228 222 227 216 210 187 183 163 141 147 153 152 155 162 164 160 158 157 151 149 146 144 142 138 134 134 132 131 129 125 121 116 113 108
207 213 228 212 203 206 188 193 221 242 227 225 236 231 194 182 165 145 152 160 162 162 166 171 167 162 161 161 161 157 156 156 152 148 148 145 142 140 137 134 131 126 119
216 222 224 225 212 220 212 196 223 227 214 211 209 231 211 199 182 160 156 164 169 171 171 171 170 171 171 170 168 167 165 166 164 162 161 160 158 156 155 155 153 149 141
224 216 223 230 240 237 225 192 219 217 220 211 207 208 204 178 212 178 163 169 171 174 177 176 175 177 179 180 179 177 175 173 173 174 172 172 173 175 177 178 176 173 171
239 217 211 212 233 251 241 222 199 207 224 224 228 212 204 179 197 201 194 183 170 168 173 179 179 180 183 185 185 184 182 179 179 181 182 182 184 188 192 192 194 198 201
242 228 210 203 210 220 233 250 208 211 227 233 245 227 203 184 187 197 222 186 168 173 168 172 177 185 190 188 188 187 185 185 186 188 189 189 192 195 197 201 208 212 217
235 224 217 207 207 207 208 218 221 217 226 249 262 283 252 210 204 195 206 199 191 178 163 172 180 180 186 192 189 189 189 188 188 190 192 192 193 194 199 205 210 218 225
233 227 213 208 206 207 207 206 204 207 209 209 196 220 264 286 263 208 189 198 221 181 170 180 184 177 179 181 191 190 189 188 190 190 190 189 190 194 198 203 210 221 230
231 224 217 209 205 200 204 202 198 193 201 210 205 181 178 212 251 271 216 201 210 193 186 197 192 182 178 178 182 189 186 185 189 190 188 185 186 189 193 202 209 217 224
233 221 216 213 210 202 200 205 200 194 191 204 218 219 211 177 171 252 271 228 215 206 197 199 200 184 174 168 172 181 183 182 185 187 187 186 185 186 190 198 205 210 212
247 227 217 214 214 211 203 202 198 197 198 199 200 201 219 224 194 183 241 275 280 251 229 194 172 154 151 152 163 176 181 181 184 188 192 191 191 191 193 193 196 203 208
279 255 230 219 216 210 208 208 203 203 203 203 202 198 191 194 194 189 204 214 236 268 303 338 31 148 140 144 157 173 179 183 186 190 195 197 198 198 196 195 200 206 208
310 294 258 224 218 216 208 202 200 205 207 205 202 203 198 199 188 181 186 201 213 235 168 1 356 30 94 126 149 168 179 186 190 194 198 201 203 202 201 199 204 210 213
331 322 305 257 205 196 203 199 197 206 197 199 207 202 198 198 191 188 182 176 188 225 227 219 53 47 65 107 143 166 184 190 193 198 202 204 205 207 206 206 210 216 219
360 9 20 35 52 113 122 143 178 197 188 195 201 198 190 192 188 188 184 178 175 189 215 208 161 76 96 123 154 185 186 196 196 199 203 205 208 209 209 209 211 214 214
18 28 36 40 42 57 82 96 118 196 188 188 184 188 190 188 186 187 180 179 175 174 191 191 178 157 139 160 171 200 191 189 196 198 201 203 205 209 211 209 214 217 219
23 28 34 40 45 47 50 58 49 78 140 156 171 175 181 181 182 183 178 180 182 177 187 185 156 162 166 158 179 220 188 178 184 191 195 198 199 203 207 209 213 217 224
25 27 30 37 40 43 47 50 42 45 77 119 150 147 157 156 164 171 175 180 181 179 170 170 157 156 165 175 186 206 185 175 165 180 188 191 190 190 194 198 203 208 217
28 29 33 34 34 33 33 31 31 34 45 51 86 124 137 140 150 159 159 159 159 152 134 139 148 159 162 171 163 177 146 120 142 154 162 162 155 147 151 149 150 166 187
29 29 34 36 32 32 26 18 17 28 48 47 55 84 103 124 142 153 148 148 147 140 137 141 148 155 159 170 150 154 148 118 116 124 121 122 116 102 90 85 83 89 97
31 32 34 34 31 32 22 14 4 18 44 52 52 70 83 90 98 113 127 139 145 145 149 151 150 149 160 147 163 162 144 114 82 93 98 98 95 83 70 62 64 71 79
29 30 34 34 34 28 16 18 10 8 36 54 52 59 86 84 87 92 108 113 125 140 145 145 152 154 155 140 135 135 134 128 102 83 96 84 79 73 61 60 68 74 77
28 29 30 30 33 23 17 15 7 6 48 52 51 53 64 70 69 81 94 93 83 77 99 135 136 139 133 130 129 120 119 113 112 121 101 88 80 78 64 58 69 75 77
30 30 29 29 30 26 19 14 6 24 60 61 53 47 58 61 55 62 90 84 71 53 54 79 92 85 85 88 107 122 120 106 96 88 97 99 90 86 76 65 67 74 76
29 32 29 30 31 26 20 18 11 28 56 66 64 53 50 53 50 58 88 95 88 77 73 83 89 91 83 73 80 99 111 120 114 94 77 104 124 112 93 77 74 78 79
27 41 39 39 39 33 28 27 23 30 42 53 62 61 50 48 49 57 84 102 100 98 103 99 89 91 81 68 71 92 121 128 125 116 122 113 148 140 113 95 103 89 81
Height
1547 1549 1551 1552 1552 1553 1554 1556 1557 1558 1560 1562 1564 1565 1566 1567 1567 1567 1568 1568 1568 1568 1568 1569 1570 1571 1572 1573 1574 1575 1576 1578 1579 1580 1581 1582 1583 1584 1585 1586 1587 1587 1588
1544 1545 1547 1548 1550 1551 1553 1554 1555 1557 1559 1561 1562 1563 1564 1565 1566 1566 1567 1567 1567 1567 1567 1568 1569 1570 1571 1572 1574 1575 1576 1577 1579 1580 1581 1582 1583 1584 1585 1586 1586 1587 1588
1540 1541 1543 1544 1546 1548 1550 1552 1553 1555 1557 1558 1560 1561 1563 1564 1565 1565 1565 1566 1566 1566 1567 1567 1568 1569 1570 1571 1573 1574 1575 1577 1578 1579 1580 1581 1582 1584 1584 1585 1586 1587 1587
1535 1537 1538 1539 1542 1544 1546 1548 1550 1552 1554 1556 1557 1559 1561 1562 1564 1565 1564 1564 1565 1565 1566 1567 1567 1568 1569 1570 1572 1573 1574 1575 1577 1578 1579 1580 1582 1583 1584 1584 1585 1586 1586
1529 1531 1533 1535 1538 1540 1542 1544 1546 1548 1551 1553 1555 1556 1558 1559 1561 1563 1563 1563 1563 1564 1565 1566 1566 1567 1568 1569 1570 1571 1573 1574 1575 1577 1578 1579 1580 1581 1582 1583 1584 1585 1585
1525 1526 1528 1530 1532 1535 1537 1539 1542 1545 1547 1549 1552 1554 1555 1557 1558 1560 1561 1562 1562 1563 1563 1565 1566 1566 1567 1568 1569 1570 1571 1572 1574 1575 1576 1577 1579 1580 1581 1582 1583 1583 1584
1520 1521 1523 1525 1527 1529 1532 1534 1538 1540 1543 1546 1549 1550 1552 1554 1556 1557 1559 1560 1561 1562 1562 1563 1564 1565 1566 1567 1568 1569 1570 1571 1572 1573 1574 1576 1577 1578 1579 1580 1581 1581 1582
1515 1516 1518 1519 1522 1524 1527 1529 1533 1536 1539 1542 1545 1547 1549 1551 1552 1554 1555 1557 1559 1560 1560 1561 1562 1563 1564 1565 1566 1567 1568 1569 1570 1571 1572 1574 1575 1576 1577 1578 1578 1579 1580
1510 1512 1513 1515 1517 1519 1521 1524 1527 1531 1534 1537 1540 1543 1545 1546 1548 1550 1551 1553 1555 1557 1558 1559 1560 1561 1562 1563 1564 1566 1567 1568 1569 1570 1571 1572 1573 1574 1575 1576 1576 1577 1577
1506 1507 1509 1511 1512 1514 1516 1519 1522 1526 1528 1531 1535 1538 1541 1542 1545 1546 1548 1549 1551 1553 1555 1556 1558 1560 1560 1560 1562 1563 1565 1566 1567 1568 1569 1570 1571 1572 1573 1574 1574 1575 1575
1503 1503 1504 1506 1508 1510 1511 1514 1517 1520 1522 1525 1529 1532 1535 1538 1540 1542 1543 1545 1547 1549 1551 1553 1555 1556 1558 1558 1559 1561 1562 1564 1565 1566 1568 1569 1570 1571 1571 1572 1573 1573 1574
1499 1499 1500 1501 1503 1505 1507 1509 1512 1515 1517 1520 1523 1526 1529 1533 1535 1538 1540 1542 1543 1545 1547 1548 1550 1552 1554 1555 1556 1558 1559 1561 1563 1564 1565 1567 1568 1569 1570 1570 1571 1572 1572
1496 1496 1496 1497 1498 1500 1502 1505 1507 1510 1512 1514 1517 1520 1523 1527 1530 1533 1536 1538 1540 1542 1543 1545 1546 1548 1550 1552 1553 1555 1556 1558 1560 1561 1563 1564 1565 1567 1567 1568 1569 1570 1570
1494 1494 1494 1495 1495 1497 1499 1501 1503 1505 1508 1510 1512 1515 1518 1522 1525 1527 1530 1533 1535 1538 1539 1540 1543 1544 1546 1548 1549 1551 1553 1554 1556 1558 1559 1561 1563 1564 1565 1566 1567 1568 1568
1494 1494 1493 1494 1494 1495 1496 1498 1500 1502 1504 1507 1509 1511 1514 1517 1520 1522 1525 1528 1531 1532 1534 1536 1538 1540 1542 1544 1545 1547 1549 1551 1552 1554 1556 1557 1559 1561 1562 1563 1564 1565 1566
1495 1494 1494 1494 1494 1494 1496 1497 1498 1500 1502 1504 1506 1508 1510 1513 1515 1518 1520 1523 1526 1528 1530 1532 1534 1536 1538 1540 1542 1543 1545 1547 1548 1550 1552 1554 1556 1557 1559 1560 1561 1562 1563
1496 1495 1495 1494 1494 1495 1495 1496 1498 1499 1500 1501 1503 1505 1507 1510 1511 1513 1516 1518 1521 1524 1526 1529 1530 1533 1535 1536 1538 1539 1541 1543 1544 1546 1548 1550 1552 1554 1556 1557 1558 1559 1560
1499 1497 1497 1496 1496 1496 1496 1496 1497 1498 1499 1500 1502 1503 1505 1507 1508 1510 1512 1514 1517 1519 1522 1524 1527 1529 1531 1533 1535 1536 1538 1539 1541 1542 1544 1546 1548 1550 1552 1553 1555 1556 1557
1501 1500 1499 1498 1498 1497 1497 1497 1498 1498 1498 1499 1501 1502 1503 1505 1506 1508 1510 1512 1514 1516 1518 1521 1524 1526 1529 1531 1533 1534 1536 1537 1539 1540 1542 1543 1545 1547 1549 1550 1551 1552 1553
1504 1502 1501 1500 1500 1499 1499 1499 1499 1498 1498 1499 1500 1501 1502 1504 1505 1507 1509 1510 1512 1514 1516 1519 1522 1524 1527 1529 1531 1532 1534 1536 1537 1539 1540 1541 1543 1544 1546 1547 1548 1549 1550
1506 1505 1503 1502 1501 1500 1500 1500 1499 1499 1499 1499 1499 1500 1502 1503 1504 1506 1508 1509 1511 1513 1515 1518 1520 1523 1525 1527 1529 1531 1533 1535 1537 1538 1539 1540 1541 1543 1544 1545 1546 1546 1547
1508 1507 1505 1504 1503 1502 1501 1500 1500 1500 1500 1500 1500 1500 1502 1502 1504 1506 1507 1509 1511 1513 1515 1517 1519 1522 1524 1526 1528 1530 1532 1534 1536 1538 1539 1540 1541 1542 1543 1544 1544 1545 1545
1511 1509 1507 1506 1504 1503 1502 1501 1501 1501 1500 1501 1501 1501 1502 1503 1505 1506 1507 1509 1511 1513 1515 1517 1519 1521 1523 1525 1527 1529 1531 1533 1535 1537 1539 1540 1541 1542 1543 1543 1543 1543 1543
1513 1511 1510 1508 1506 1505 1504 1503 1502 1502 1502 1502 1502 1503 1503 1504 1506 1507 1508 1510 1511 1513 1515 1517 1519 1521 1523 1525 1526 1528 1530 1532 1535 1537 1539 1540 1541 1542 1543 1543 1543 1543 1543
1516 1514 1512 1511 1509 1507 1505 1504 1504 1504 1504 1504 1504 1504 1505 1506 1507 1508 1510 1511 1513 1515 1517 1519 1521 1522 1524 1525 1527 1528 1530 1532 1534 1536 1538 1539 1541 1542 1543 1543 1543 1543 1543
1519 1517 1515 1513 1511 1509 1508 1506 1506 1505 1505 1505 1506 1506 1507 1508 1509 1510 1512 1513 1515 1517 1519 1521 1522 1524 1525 1527 1528 1529 1530 1532 1534 1536 1538 1539 1540 1542 1543 1544 1544 1544 1543